Regional Weather Roundup
Issued by NWS Raleigh/Durham, NC

Home | Current Version | Previous Version | Text Only | Print | Product List | Glossary On
Versions: 1 2 3 4 5 6 7 8 9 10 11 12 13 14 15 16 17 18 19 20 21 22 23 24 25 26 27 28 29 30 31 32 33 34 35 36 37 38 39 40 41 42 43 44 45 46 47 48 49 50
890
ASUS42 KRAH 232010
RWRRAH
NORTH CAROLINA WEATHER ROUNDUP
NATIONAL WEATHER SERVICE RALEIGH NC
300 PM EST THU NOV 23 2017

NOTE: "FAIR" INDICATES FEW OR NO CLOUDS BELOW 12,000 FEET WITH NO
SIGNIFICANT WEATHER AND/OR OBSTRUCTIONS TO VISIBILITY.

NCZ001-053-055-056-065-067-232100-
WESTERN NORTH CAROLINA

CITY           SKY/WX    TMP DP  RH WIND       PRES   REMARKS
ASHEVILLE      SUNNY     55  29  36 SW5       30.00F
JEFFERSON      SUNNY     50  26  39 W5        29.97F
MORGANTON      SUNNY     53  28  38 CALM      30.06F
HICKORY        SUNNY     51  28  41 VRB3      30.03F
RUTHERFORDTON  SUNNY     53  26  35 S3        30.05F
MOUNT AIRY     SUNNY     50  22  33 SW3       30.04F
BOONE          SUNNY     50  28  43 NW9G20    29.99F
$$

NCZ021-022-025-041-071-084-088-232100-
CENTRAL NORTH CAROLINA

CITY           SKY/WX    TMP DP  RH WIND       PRES   REMARKS
CHARLOTTE      MOSUNNY   55  28  35 SE6       30.04F
GREENSBORO     MOSUNNY   50  25  37 E3        30.03F
WINSTON-SALEM  SUNNY     48  24  39 VRB3      30.05F
RALEIGH-DURHAM PTSUNNY   48  25  40 CALM      30.07F
FORT BRAGG     PTSUNNY   48  27  44 NE6       30.05F
FAYETTEVILLE   PTSUNNY   49  31  49 N7        30.06F
BURLINGTON     SUNNY     51  25  36 CALM      30.04F
LAURINBURG     CLOUDY    50  31  48 NE9       30.06F
$$

NCZ011-015-027-028-043-044-047-080-103-232100-
NORTHEASTERN NORTH CAROLINA

CITY           SKY/WX    TMP DP  RH WIND       PRES   REMARKS
ROCKY MT-WILSO PTSUNNY   47  31  53 CALM      30.07F
GREENVILLE     PTSUNNY   48  34  57 N6        30.09F
WASHINGTON     CLOUDY    47  35  63 N5        30.08F
ELIZABETH CITY PTSUNNY   47  36  65 NE7       30.08F
MANTEO         PTSUNNY   46  36  68 NE12      30.08F
CAPE HATTERAS  PTSUNNY   50  42  74 N8G17     30.06S
$$

NCZ078-087-090-091-093-098-101-232100-
SOUTHEASTERN NORTH CAROLINA

CITY           SKY/WX    TMP DP  RH WIND       PRES   REMARKS
LUMBERTON      CLOUDY    49  35  58 N7        30.05F
GOLDSBORO      SUNNY     48  33  56 N6        30.05F
KINSTON        PTSUNNY   48  36  61 N7        30.07F
KENANSVILLE    CLOUDY    46  34  61 N6        30.07F
NEW BERN       CLOUDY    47  39  74 N9        30.07F
CHERRY POINT   NOT AVBL
BEAUFORT       CLOUDY    50  42  74 N10       30.05S
JACKSONVILLE   CLOUDY    49  40  71 N9        30.05F
WILMINGTON     CLOUDY    50  39  66 N7        30.05F
$$





USA.gov is the U.S. government's official web portal to all federal, state and local government web resources and services.